Home   Weather   Völklingen   Past weeks

Flag for Germany Past Weather in Völklingen, Saarland, Germany — Yesterday and Last 2 Weeks

Now
37 °F

Clear.


Feels Like: 35 °F
Forecast: 38 / 57 °F
Wind: 3 mph from West

Location: Saarbruecken / Ensheim

Current Time: Apr 29, 2017 at 1:52:32 am

Latest Report: Apr 29, 2017 at 1:20 am


Visibility: N/A

Pressure: 30.04 "Hg

Humidity: 93%

Dew Point: 36 °F

Location of VölklingenLocation

Past Weather in Völklingen — Graph

°F

Völklingen Temperature Yesterday

Maximum temperature yesterday: 50 °F (at 12:20 pm)
Minimum temperature yesterday: 28 °F (at 6:20 am)
Average temperature yesterday: 42 °F

High & Low Weather Summary for the Past Weeks

 TemperatureHumidityPressure
High61 °F (Apr 24, 3:20 pm)100% (Apr 16, 5:50 am)30.57 "Hg (Apr 16, 5:50 am)
Low27 °F (Apr 20, 6:20 am)28% (Apr 20, 5:50 pm)29.74 "Hg (Apr 25, 3:20 am)
Average44 °F64%30.12 "Hg
* Reported Apr 14 12:20 am — Apr 29 12:50 am, Völklingen, Weather by CustomWeather, © 2017

Note: Actual official high and low records may vary slightly from our data, if they occured in-between our weather recording intervals... More about our weather records

Advertising

Völklingen Weather History for the Previous 24 Hours

Scroll right to see more
 ConditionsComfort  
Time TempWeatherWind HumidityBarometerVisibility
12:50 am
Sat, Apr 29
37 °FClear.3 mph93%30.04 "HgN/A
12:20 am39 °FClear.3 mph87%30.04 "HgN/A
11:50 pm
Fri, Apr 28
39 °FClear.2 mph87%30.04 "HgN/A
10:50 pm43 °FPassing clouds.3 mph81%30.04 "HgN/A
10:20 pm43 °FClear.6 mph81%30.01 "Hg10 mi
9:50 pm45 °FClear.9 mph76%30.01 "Hg10 mi
9:20 pm45 °FPartly cloudy.7 mph76%30.01 "HgN/A
8:50 pm45 °FPartly cloudy.6 mph81%30.01 "HgN/A
8:20 pm46 °FSprinkles. Broken clouds.7 mph71%30.01 "HgN/A
7:50 pm46 °FBroken clouds.3 mph71%29.98 "HgN/A
7:20 pm48 °FBroken clouds.3 mph66%29.98 "HgN/A
6:50 pm48 °FSprinkles. Broken clouds.7 mph66%29.98 "HgN/A
6:20 pm48 °FPartly sunny.8 mph54%29.98 "HgN/A
5:50 pm50 °FBroken clouds.9 mph50%29.98 "HgN/A
5:20 pm50 °FPartly sunny.10 mph50%29.98 "HgN/A
4:50 pm50 °FPartly sunny.10 mph50%29.98 "HgN/A
4:20 pm48 °FPartly sunny.12 mph54%29.98 "HgN/A
3:50 pm48 °FBroken clouds.12 mph58%29.98 "HgN/A
3:20 pm48 °FBroken clouds.13 mph54%29.98 "HgN/A
2:50 pm48 °FBroken clouds.9 mph46%29.95 "HgN/A
2:20 pm48 °FPartly sunny.13 mph50%29.95 "HgN/A
1:50 pm50 °FPartly sunny.12 mph47%29.95 "HgN/A
1:20 pm48 °FPassing clouds.13 mph43%29.95 "HgN/A
12:50 pm48 °FScattered clouds.12 mph43%29.95 "HgN/A
12:20 pm50 °FScattered clouds.10 mph43%29.95 "HgN/A
11:50 am46 °FScattered clouds.12 mph50%29.95 "HgN/A
11:20 am46 °FPassing clouds.9 mph53%29.95 "HgN/A
10:50 am46 °FPassing clouds.7 mph53%29.95 "HgN/A
9:50 am45 °FPassing clouds.6 mph61%29.95 "HgN/A
9:20 am41 °FPassing clouds.7 mph70%29.95 "HgN/A
8:50 am39 °FSunny.7 mph70%29.95 "Hg10 mi
8:20 am36 °FPassing clouds.3 mph81%29.95 "HgN/A
7:50 am34 °FSunny.5 mph81%29.95 "Hg10 mi
7:20 am32 °FSunny.6 mph87%29.95 "Hg10 mi
6:50 am30 °FSunny.5 mph93%29.95 "Hg10 mi
6:20 am28 °FSunny.1 mph93%29.92 "Hg10 mi
5:50 am30 °FClear.2 mph86%29.92 "Hg10 mi
5:20 am32 °FPassing clouds.3 mph87%29.92 "HgN/A
4:50 am30 °FPassing clouds.5 mph93%29.92 "HgN/A
4:20 am32 °FClear.5 mph87%29.92 "Hg10 mi
3:50 am34 °FClear.5 mph81%29.95 "Hg10 mi
3:20 am34 °FClear.5 mph81%29.95 "HgN/A
2:50 am34 °FClear.3 mph81%29.92 "HgN/A
2:20 am34 °FClear.3 mph81%29.95 "HgN/A
1:50 am34 °FClear.6 mph87%29.95 "HgN/A
1:20 am36 °FPassing clouds.2 mph81%29.95 "HgN/A
Weather by CustomWeather, © 2017

See weather overviewHow to use our weather pages